User: anonymous   Login
Location: Gleizolles
(44.4833°N, 6.7667°E)
Time: 04:49:17
(UTC+00:00)
Language:

UWE-3 - Orbit

View from above orbital plane
View from above orbital plane
View from above satellite
View from above satellite

Ground track
Ground track

The orbit data is extracted from the following two-line orbital elements,

1 39446U 13066AG  24057.82850923  .00005214  00000-0  60285-3 0  9993
2 39446  97.7696  10.1637 0060852 224.0379 135.5980 14.84640711552760
Epoch (UTC): 26 February 2024 19:53:03
Eccentricity: 0.0060852
inclination: 97.7696°
perigee height: 572 km
apogee height: 657 km
right ascension of ascending node: 10.1637°
argument of perigee: 224.0379°
revolutions per day: 14.84640711
mean anomaly at epoch: 135.5980°
orbit number at epoch: 55276

The dashed part of the orbit path shows where the satellite is in the earth's shadow,  

DLR